Theta_e
331 331 331 331 330 330 330 330 331 332 332 332 333 333 333 334 333 332 332 333 333 332 331 331 331 331 331 332 332 331 331 331 331 330 329 329 329 330 331 331 329 328
331 331 330 329 329 329 331 331 332 332 331 331 332 332 333 334 333 332 331 333 333 332 332 332 331 331 331 332 333 333 332 331 330 329 328 329 330 330 330 330 329 328
331 330 330 329 329 330 331 332 332 332 331 331 330 329 330 333 332 331 331 333 333 332 332 331 331 331 331 331 332 333 332 330 329 328 329 330 330 329 328 328 328 328
330 330 330 329 329 330 330 330 331 331 330 330 330 328 329 331 331 331 332 333 332 332 331 331 331 331 331 331 331 332 331 330 329 329 330 329 328 328 327 327 328 328
329 330 330 330 331 331 330 330 330 330 330 330 330 329 329 330 330 331 331 332 332 332 331 331 331 330 330 329 330 330 331 330 330 330 330 328 327 327 327 327 328 328
328 330 329 329 330 330 330 330 331 330 330 330 330 329 329 330 331 331 331 332 332 332 331 331 330 329 329 329 330 330 330 330 330 330 329 328 327 328 328 327 328 327
328 329 329 328 328 329 329 329 329 329 329 329 329 329 329 330 331 330 331 332 332 331 331 330 329 329 329 330 330 330 329 329 330 330 329 328 328 329 328 328 329 328
327 328 328 327 327 327 328 327 326 327 327 326 327 329 329 330 331 330 330 332 332 331 331 329 328 328 329 329 329 329 329 329 330 329 328 328 329 328 327 328 328 327
326 327 328 328 326 326 327 327 326 327 327 326 326 328 329 330 330 329 330 331 332 331 330 328 327 327 328 328 328 328 328 329 330 329 327 328 327 326 326 327 327 327
325 326 327 328 327 327 327 327 327 327 327 325 325 327 329 330 330 329 330 331 331 330 328 325 325 326 327 326 326 325 326 328 328 327 326 327 327 327 327 327 327 327
324 325 327 327 328 328 327 327 327 328 327 326 326 327 328 328 329 329 330 330 329 328 327 325 325 325 325 325 324 324 326 327 327 327 327 327 328 328 328 328 328 328
324 325 326 327 327 328 327 327 328 328 328 327 327 328 329 328 328 328 329 329 329 327 326 326 326 326 325 325 325 325 324 325 327 328 327 328 328 328 328 329 329 328
324 325 326 327 327 327 327 327 328 328 328 327 327 328 328 327 327 328 328 329 329 328 327 327 328 328 326 325 326 326 325 325 327 327 326 327 328 327 326 328 329 329
324 324 325 326 326 326 327 327 328 328 328 327 328 329 328 327 327 327 327 327 327 328 328 328 328 327 326 326 326 327 326 326 326 326 326 327 327 327 327 327 328 329
322 323 324 325 325 325 325 326 326 327 327 327 327 328 329 328 327 326 327 327 327 327 328 328 327 325 325 326 326 326 326 326 325 326 326 327 328 329 329 329 329 329
321 323 324 324 324 324 324 325 325 325 326 326 327 327 328 328 327 327 328 328 327 327 326 326 326 325 326 326 326 325 325 325 325 325 326 327 328 329 330 330 329 328
319 321 323 323 324 324 324 324 324 325 325 326 326 326 327 327 328 327 328 328 327 326 326 325 325 325 325 325 325 325 324 324 324 325 326 327 327 327 329 329 327 326
319 320 321 322 323 323 324 324 323 323 323 324 325 326 326 327 327 327 327 327 326 325 325 324 324 324 325 324 323 323 323 324 324 324 325 324 325 325 326 327 326 325
319 320 320 321 321 322 323 323 322 322 321 322 323 324 325 325 325 326 326 326 324 322 322 322 323 324 325 324 322 321 322 323 323 323 323 323 324 324 325 326 326 325
319 319 319 319 320 321 322 321 321 321 321 320 321 322 323 322 322 323 324 324 323 320 319 321 323 324 324 323 322 321 321 321 321 322 323 324 325 325 325 326 326 326
318 319 319 319 319 319 320 319 319 320 320 320 320 321 321 320 319 320 321 321 321 321 320 321 323 323 323 321 320 320 319 320 322 323 324 325 325 325 325 325 326 326
316 317 318 319 319 318 318 317 318 319 320 320 321 321 321 320 320 320 318 316 317 319 319 320 321 322 322 320 320 320 320 321 323 324 323 324 324 324 324 324 325 325
314 315 316 317 317 317 317 317 317 318 319 320 320 319 318 318 318 318 317 316 316 316 317 318 319 320 321 320 320 320 319 320 321 321 322 323 324 324 324 324 324 324
313 313 314 315 316 315 315 316 316 317 318 319 318 316 315 316 316 317 316 316 316 317 317 316 317 319 320 320 319 318 318 319 319 320 321 322 322 323 323 323 323 322
312 312 312 313 314 314 314 315 315 315 316 317 317 317 316 315 316 316 316 316 317 317 317 314 313 316 319 319 318 318 318 319 319 320 320 319 319 320 320 320 320 320
312 312 312 313 313 313 313 313 314 314 315 315 316 316 316 316 315 315 316 316 317 318 318 316 313 313 315 317 318 318 319 318 318 319 318 316 316 317 317 317 318 318
Wind_Speed
10 11 11 12 13 14 17 19 20 22 23 23 22 19 18 18 17 18 17 17 17 17 18 18 20 21 22 23 24 25 26 26 24 22 22 23 23 22 20 18 18 18
9 10 11 12 13 14 16 18 19 21 23 24 22 19 17 17 17 17 16 17 17 17 17 18 19 20 23 24 24 25 25 25 24 22 22 21 21 20 18 16 17 19
10 11 12 13 14 15 17 19 20 22 23 24 23 20 18 17 17 16 16 17 16 16 17 17 18 19 21 22 23 23 23 24 24 22 21 20 19 18 17 16 17 19
10 11 13 13 14 16 19 20 22 24 24 23 22 20 19 19 17 14 15 15 14 15 16 16 17 17 19 20 21 21 21 21 21 20 20 19 17 16 17 17 17 17
11 11 13 15 15 16 19 22 23 24 24 23 21 19 19 18 15 13 13 13 13 14 14 14 15 16 17 18 19 20 20 18 18 19 20 18 16 16 17 17 17 17
12 12 13 14 15 16 19 21 21 22 23 23 20 18 17 16 14 12 12 12 14 14 13 13 13 13 14 14 15 16 17 17 18 19 18 17 16 17 17 17 17 17
13 13 13 14 15 16 19 20 20 21 21 20 18 16 15 15 13 11 10 11 13 13 12 11 10 10 11 11 12 14 15 17 17 16 16 16 17 18 18 17 15 16
14 14 13 13 13 15 18 18 19 19 17 16 16 14 14 14 12 10 10 10 10 12 12 10 9 9 10 10 11 13 14 16 16 15 15 16 16 18 17 16 16 16
13 13 12 13 13 14 16 17 17 16 15 15 16 14 13 12 11 9 9 10 11 11 10 9 9 9 9 10 11 12 14 16 16 15 15 16 17 17 17 17 18 16
12 12 12 12 13 14 16 16 16 15 13 15 16 15 14 12 9 7 8 10 11 10 9 9 9 8 8 9 9 10 13 14 15 15 16 18 17 16 17 18 18 17
12 11 11 12 13 13 14 15 15 14 13 13 15 17 14 11 8 5 6 7 8 9 9 8 9 9 8 8 9 10 13 14 15 17 19 20 18 18 18 17 16 16
12 10 11 14 14 13 13 14 14 14 13 11 13 14 11 9 8 4 2 4 5 7 8 8 8 8 7 8 9 10 14 15 14 15 17 18 18 18 18 17 15 15
11 10 11 14 15 12 12 13 13 13 13 11 10 10 8 7 7 5 1 2 3 4 6 6 7 8 7 8 9 11 14 14 12 11 12 14 16 16 18 19 17 15
11 10 10 12 14 12 11 11 12 12 11 10 9 7 5 5 6 6 3 1 3 4 5 5 6 9 9 8 9 11 12 11 10 11 12 12 12 12 13 15 15 14
13 10 8 8 10 10 9 9 10 10 9 8 8 6 3 3 3 4 3 2 4 5 5 5 7 10 10 8 9 10 8 8 9 11 11 11 10 9 8 9 10 12
13 10 8 7 7 8 8 10 11 10 10 9 7 6 5 4 4 5 5 3 3 5 6 7 9 9 7 7 8 8 6 7 9 9 9 9 9 8 7 8 9 10
13 10 9 8 8 10 10 11 12 12 11 9 8 8 7 6 5 6 5 1 4 6 8 10 9 8 6 6 8 8 6 6 8 8 8 7 7 7 7 8 9 9
14 12 11 10 10 12 13 13 13 12 11 9 8 8 8 6 5 5 4 4 7 7 7 8 6 5 4 4 7 9 9 7 6 6 6 7 7 6 7 6 6 7
16 14 13 13 14 15 15 14 14 14 14 12 9 7 6 5 5 4 4 6 6 4 4 4 3 4 4 4 5 7 8 7 5 4 5 6 6 5 5 5 6 8
17 17 17 17 17 16 15 15 15 16 17 15 12 9 7 9 10 8 2 4 6 6 6 5 4 5 5 4 4 3 5 5 4 4 5 5 5 6 6 6 7 8
16 18 19 19 18 16 15 15 16 17 17 16 14 11 10 13 15 15 11 8 8 8 6 3 5 7 6 4 2 2 2 3 5 7 7 6 7 8 7 8 9 8
15 16 18 19 18 16 16 16 17 17 16 15 14 12 11 12 13 14 13 10 7 6 3 1 3 7 6 3 2 2 2 2 4 3 4 5 5 5 6 9 11 12
15 16 18 19 19 19 19 18 18 16 14 12 12 13 13 13 13 12 10 7 4 2 3 2 2 5 4 3 1 2 5 5 5 4 3 6 7 7 8 9 12 14
17 16 18 20 21 22 22 21 19 17 14 12 11 12 13 13 12 10 8 6 5 4 3 0 2 2 4 4 2 2 4 6 8 8 6 6 6 7 8 10 11 12
19 18 18 21 23 23 22 22 21 19 16 13 12 12 12 11 10 10 9 7 6 6 5 3 3 3 3 2 1 1 2 4 7 7 7 6 3 3 5 9 10 8
19 20 20 21 23 22 21 22 21 19 18 17 16 16 15 13 12 11 11 10 10 8 5 3 1 2 4 3 2 2 2 3 5 6 7 7 3 2 2 5 7 8
Wind_Direction
285 284 285 285 284 285 283 278 274 269 264 260 258 256 252 249 250 250 251 252 249 245 244 239 233 230 227 226 224 224 225 223 219 220 224 224 220 219 215 212 216 218
291 289 289 290 292 293 289 283 277 272 267 262 256 253 254 251 249 251 250 248 247 244 239 234 231 230 228 225 221 217 217 218 219 221 224 222 217 218 217 216 221 221
293 294 293 293 295 295 290 284 279 273 268 265 258 252 254 254 249 250 249 246 245 240 234 230 228 227 225 219 215 215 213 213 218 222 222 219 213 217 223 227 228 223
288 292 295 296 298 297 292 287 282 276 270 264 258 253 253 254 251 248 246 244 241 233 228 226 224 223 219 212 211 215 214 213 218 219 220 220 218 221 227 229 227 219
287 288 293 298 300 300 297 293 289 285 278 269 261 256 255 255 253 249 244 239 232 226 223 218 214 212 211 212 214 216 216 218 219 218 220 224 225 225 225 223 220 212
296 292 290 293 297 301 300 299 297 292 284 277 266 258 255 252 249 247 240 229 222 218 214 207 206 209 208 211 216 218 221 222 222 223 224 226 228 225 219 217 215 210
304 301 296 295 297 300 302 306 308 302 295 287 272 257 250 246 245 243 230 219 216 211 204 198 201 211 210 207 213 219 223 225 227 229 230 229 227 220 215 215 214 212
309 308 304 301 302 304 307 313 315 312 311 302 284 267 254 245 241 237 219 203 201 200 198 195 198 212 219 218 219 222 227 228 224 225 228 226 219 215 215 214 211 211
314 314 312 311 309 307 310 316 317 316 319 312 298 285 269 253 241 233 212 191 189 193 192 191 197 210 222 226 227 232 236 230 221 223 226 218 209 212 213 208 206 207
324 325 324 321 315 308 310 315 318 319 319 313 305 291 275 263 247 222 196 185 188 196 198 200 204 207 216 225 229 233 232 226 222 224 220 211 205 208 212 209 206 201
337 338 335 326 317 311 312 315 316 319 319 314 307 295 285 282 268 219 178 178 188 201 210 212 213 211 215 224 225 220 216 220 224 216 206 206 205 203 208 210 206 200
345 345 341 335 327 318 318 320 317 319 324 325 316 306 299 297 286 260 155 159 193 213 215 211 210 208 209 215 214 206 202 209 221 215 204 210 212 205 204 205 203 200
358 356 352 346 338 328 323 324 324 327 332 332 324 316 313 315 309 310 16 133 202 216 202 194 191 185 183 189 193 194 193 195 209 216 213 218 220 213 205 201 199 197
1 359 358 355 353 349 337 330 333 338 340 334 325 322 321 324 328 334 353 148 193 205 195 183 173 170 172 179 189 192 190 193 205 213 215 216 215 213 205 198 195 191
356 350 350 352 357 356 345 336 335 337 341 335 322 323 323 301 306 317 311 231 209 217 202 171 163 170 175 185 199 198 191 204 216 209 206 206 203 204 202 197 196 190
0 353 351 350 354 358 350 346 345 343 347 343 326 321 316 295 284 289 293 281 223 217 199 174 159 156 164 185 204 205 198 213 220 204 195 200 197 194 194 197 204 202
9 5 5 5 10 15 10 4 2 359 358 354 343 334 322 309 298 288 285 231 179 190 190 187 170 145 150 187 200 200 195 201 207 200 192 198 201 196 192 197 209 212
21 18 16 21 29 32 29 25 22 21 20 12 360 352 343 336 324 300 266 188 182 185 181 187 181 147 153 194 200 198 197 192 196 205 204 204 209 204 197 203 212 209
32 30 29 33 37 38 35 33 31 31 32 29 21 13 5 3 1 323 257 201 179 158 143 158 171 157 159 179 191 200 207 200 186 206 231 222 215 208 203 208 207 200
36 38 40 42 43 43 39 36 36 39 42 40 35 35 45 57 55 37 350 181 145 117 110 122 146 151 147 157 178 202 217 210 197 214 236 222 197 190 190 188 191 199
38 40 44 48 50 52 50 45 44 49 54 54 52 55 66 73 69 60 56 68 83 95 106 134 160 154 144 147 175 206 205 227 254 243 223 199 184 183 186 178 170 171
36 40 46 51 53 54 52 49 48 51 56 59 59 63 68 75 79 76 72 67 60 76 93 317 134 140 148 151 147 264 243 251 301 269 205 197 195 189 193 187 171 163
37 42 50 56 57 56 53 50 47 49 53 57 60 63 63 65 70 74 81 85 74 109 186 263 72 124 159 169 140 295 275 278 315 322 253 231 219 203 205 198 180 175
44 44 50 56 57 57 54 50 46 45 48 53 60 66 64 57 57 57 60 67 65 89 137 83 2 106 154 168 184 292 298 297 312 314 285 256 229 212 211 201 183 176
53 51 51 53 54 54 54 52 49 47 49 54 58 63 62 55 53 50 46 47 49 54 74 59 349 357 58 105 186 267 317 318 326 324 318 321 302 225 193 189 187 170
56 58 61 62 60 56 56 56 55 55 58 61 61 62 62 57 50 42 35 39 43 40 52 100 150 316 346 7 20 40 43 2 350 344 351 1 339 259 197 192 190 160